• In Hungary
  • List of Countries
  • For 7 days
  • Water Temperature
  • Satellite Maps
  • Weather Map
  • News
  • Weather Widgets
  • user-avatar
    Login

    Hourly Weather Putivl

    Today, 15 November, Thursday

    Time Temperature Precipitation Wind Pressure Humidity
    00:00 -3°C° 0 mm 4 mps 755 mmHg 81%
    01:00 -3°C° 0 mm 4 mps 755 mmHg 82%
    02:00 -2°C° 0 mm 3 mps 755 mmHg 80%
    03:00 -2°C° 0 mm 3 mps 755 mmHg 82%
    04:00 -3°C° 0 mm 4 mps 755 mmHg 83%
    05:00 -3°C° 0 mm 4 mps 756 mmHg 84%
    06:00 -3°C° 0.1 mm 4 mps 756 mmHg 85%
    07:00 -3°C° 0.1 mm 4 mps 756 mmHg 85%
    08:00 -3°C° 0.1 mm 4 mps 757 mmHg 85%
    09:00 -3°C° 0 mm 4 mps 757 mmHg 81%
    10:00 -2°C° 0 mm 4 mps 758 mmHg 77%
    11:00 -1°C° 0 mm 4 mps 758 mmHg 73%
    12:00 -1°C° 0 mm 4 mps 758 mmHg 70%
    13:00 0°C° 0 mm 4 mps 759 mmHg 67%
    14:00 0°C° 0 mm 4 mps 759 mmHg 64%
    15:00 0°C° 0 mm 3 mps 759 mmHg 65%
    16:00 -1°C° 0 mm 3 mps 760 mmHg 66%
    17:00 -2°C° 0 mm 3 mps 760 mmHg 68%
    18:00 -2°C° 0 mm 3 mps 760 mmHg 66%
    19:00 -4°C° 0 mm 3 mps 761 mmHg 63%
    20:00 -4°C° 0 mm 4 mps 761 mmHg 61%
    21:00 -4°C° 0 mm 3 mps 761 mmHg 60%
    22:00 -4°C° 0 mm 3 mps 762 mmHg 59%
    23:00 -5°C° 0 mm 3 mps 762 mmHg 59%

    Tomorrow, 16 November, Friday

    Time Temperature Precipitation Wind Pressure Humidity
    00:00 -5°C° 0 mm 3 mps 762 mmHg 57%
    01:00 -5°C° 0 mm 3 mps 762 mmHg 56%
    02:00 -5°C° 0 mm 3 mps 763 mmHg 55%
    03:00 -5°C° 0 mm 4 mps 763 mmHg 53%
    04:00 -5°C° 0 mm 4 mps 763 mmHg 52%
    05:00 -5°C° 0 mm 4 mps 763 mmHg 50%
    06:00 -5°C° 0 mm 4 mps 763 mmHg 48%
    07:00 -5°C° 0 mm 4 mps 764 mmHg 46%
    08:00 -5°C° 0 mm 4 mps 764 mmHg 44%
    09:00 -4°C° 0 mm 4 mps 764 mmHg 41%
    10:00 -4°C° 0 mm 5 mps 764 mmHg 39%
    11:00 -1°C° 0 mm 5 mps 764 mmHg 37%
    12:00 -1°C° 0 mm 5 mps 764 mmHg 35%
    13:00 -1°C° 0 mm 5 mps 764 mmHg 34%
    14:00 0°C° 0 mm 5 mps 764 mmHg 33%
    15:00 -1°C° 0 mm 4 mps 764 mmHg 35%
    16:00 -3°C° 0 mm 4 mps 765 mmHg 37%
    17:00 -4°C° 0 mm 4 mps 765 mmHg 39%
    18:00 -4°C° 0 mm 4 mps 765 mmHg 39%
    19:00 -4°C° 0 mm 4 mps 765 mmHg 38%
    20:00 -4°C° 0 mm 4 mps 765 mmHg 38%
    21:00 -4°C° 0 mm 4 mps 765 mmHg 38%
    22:00 -5°C° 0 mm 4 mps 765 mmHg 38%
    23:00 -5°C° 0 mm 4 mps 765 mmHg 37%

    Day after tomorrow, 17 November, Saturday

    Time Temperature Precipitation Wind Pressure Humidity
    00:00 -5°C° 0 mm 4 mps 765 mmHg 37%
    01:00 -5°C° 0 mm 4 mps 765 mmHg 36%
    02:00 -5°C° 0 mm 4 mps 765 mmHg 36%
    03:00 -5°C° 0 mm 3 mps 765 mmHg 35%
    04:00 -5°C° 0 mm 3 mps 765 mmHg 35%
    05:00 -5°C° 0 mm 3 mps 764 mmHg 34%
    06:00 -5°C° 0 mm 3 mps 764 mmHg 34%
    07:00 -5°C° 0 mm 3 mps 764 mmHg 33%
    08:00 -5°C° 0 mm 3 mps 764 mmHg 32%
    09:00 -4°C° 0 mm 3 mps 764 mmHg 30%
    10:00 -2°C° 0 mm 3 mps 764 mmHg 27%
    11:00 0°C° 0 mm 3 mps 764 mmHg 25%
    12:00 0°C° 0 mm 3 mps 763 mmHg 26%
    13:00 0°C° 0 mm 3 mps 763 mmHg 27%
    14:00 +1°C° 0 mm 2 mps 762 mmHg 28%
    15:00 -1°C° 0 mm 2 mps 762 mmHg 30%
    16:00 -2°C° 0 mm 2 mps 762 mmHg 32%
    17:00 -3°C° 0 mm 2 mps 761 mmHg 33%
    18:00 -3°C° 0 mm 2 mps 761 mmHg 33%
    19:00 -4°C° 0 mm 2 mps 761 mmHg 33%
    20:00 -2°C° 0 mm 1 mps 760 mmHg 32%
    21:00 -2°C° 0 mm 1 mps 760 mmHg 32%
    22:00 -2°C° 0 mm 1 mps 759 mmHg 32%
    23:00 -3°C° 0 mm 0 mps 759 mmHg 32%

    18 November, Sunday

    Time Temperature Precipitation Wind Pressure Humidity
    00:00 -2°C° 0 mm 1 mps 758 mmHg 33%
    01:00 -2°C° 0 mm 1 mps 757 mmHg 34%
    02:00 -4°C° 0 mm 2 mps 757 mmHg 35%
    03:00 -4°C° 0 mm 2 mps 756 mmHg 37%
    04:00 -4°C° 0 mm 2 mps 755 mmHg 39%
    05:00 -4°C° 0 mm 2 mps 754 mmHg 41%
    06:00 -4°C° 0 mm 2 mps 754 mmHg 43%
    07:00 -4°C° 0 mm 2 mps 754 mmHg 44%
    08:00 -4°C° 0 mm 2 mps 753 mmHg 45%
    09:00 -3°C° 0 mm 2 mps 753 mmHg 47%
    10:00 -3°C° 0 mm 2 mps 752 mmHg 49%
    11:00 -2°C° 0 mm 3 mps 752 mmHg 50%
    12:00 -2°C° 0.1 mm 3 mps 752 mmHg 53%
    13:00 -2°C° 0.1 mm 2 mps 751 mmHg 55%
    14:00 -1°C° 0.1 mm 2 mps 751 mmHg 58%
    15:00 -2°C° 0.1 mm 2 mps 751 mmHg 62%
    16:00 -2°C° 0.1 mm 2 mps 751 mmHg 65%
    17:00 -3°C° 0.1 mm 2 mps 751 mmHg 69%
    18:00 -3°C° 0.1 mm 2 mps 751 mmHg 70%
    19:00 -3°C° 0.1 mm 2 mps 751 mmHg 72%
    20:00 -3°C° 0.1 mm 2 mps 751 mmHg 73%
    21:00 -3°C° 0.1 mm 2 mps 751 mmHg 71%
    22:00 -3°C° 0.1 mm 2 mps 751 mmHg 69%
    23:00 -3°C° 0.1 mm 2 mps 751 mmHg 67%

    19 November, Monday

    Time Temperature Precipitation Wind Pressure Humidity
    00:00 -3°C° 0 mm 2 mps 751 mmHg 64%
    01:00 -3°C° 0 mm 2 mps 752 mmHg 61%
    02:00 -3°C° 0 mm 2 mps 752 mmHg 59%
    03:00 -3°C° 0 mm 2 mps 752 mmHg 56%
    04:00 -3°C° 0 mm 2 mps 752 mmHg 54%
    05:00 -4°C° 0 mm 2 mps 752 mmHg 52%
    06:00 -4°C° 0 mm 2 mps 753 mmHg 52%
    07:00 -4°C° 0 mm 2 mps 753 mmHg 51%
    08:00 -5°C° 0 mm 3 mps 754 mmHg 50%
    09:00 -4°C° 0 mm 3 mps 754 mmHg 47%
    10:00 -2°C° 0 mm 3 mps 755 mmHg 45%
    11:00 -1°C° 0 mm 3 mps 755 mmHg 42%
    12:00 -1°C° 0 mm 3 mps 755 mmHg 43%
    13:00 0°C° 0 mm 3 mps 755 mmHg 45%
    14:00 0°C° 0 mm 3 mps 755 mmHg 46%
    15:00 -1°C° 0 mm 3 mps 756 mmHg 52%
    16:00 -2°C° 0 mm 3 mps 756 mmHg 58%
    17:00 -4°C° 0 mm 3 mps 756 mmHg 64%
    18:00 -4°C° 0 mm 3 mps 756 mmHg 68%
    19:00 -4°C° 0 mm 3 mps 757 mmHg 71%
    20:00 -4°C° 0 mm 4 mps 757 mmHg 75%
    21:00 -4°C° 0 mm 4 mps 757 mmHg 75%
    22:00 -4°C° 0 mm 4 mps 757 mmHg 75%
    23:00 -4°C° 0 mm 4 mps 757 mmHg 76%

    20 November, Tuesday

    Time Temperature Precipitation Wind Pressure Humidity
    00:00 -4°C° 0 mm 4 mps 757 mmHg 76%
    01:00 -5°C° 0 mm 3 mps 757 mmHg 77%
    02:00 -5°C° 0 mm 3 mps 757 mmHg 78%
    03:00 -5°C° 0 mm 3 mps 757 mmHg 77%
    04:00 -5°C° 0 mm 4 mps 757 mmHg 76%
    05:00 -5°C° 0 mm 4 mps 757 mmHg 76%
    06:00 -5°C° 0 mm 4 mps 757 mmHg 73%
    07:00 -5°C° 0 mm 4 mps 757 mmHg 70%
    08:00 -5°C° 0 mm 4 mps 757 mmHg 67%
    09:00 -4°C° 0 mm 4 mps 757 mmHg 61%
    10:00 -3°C° 0 mm 4 mps 757 mmHg 55%
    11:00 -2°C° 0 mm 4 mps 757 mmHg 49%
    12:00 -2°C° 0 mm 4 mps 757 mmHg 50%
    13:00 -1°C° 0 mm 4 mps 757 mmHg 50%
    14:00 0°C° 0 mm 3 mps 757 mmHg 50%
    15:00 -1°C° 0 mm 3 mps 757 mmHg 54%
    16:00 -2°C° 0 mm 3 mps 757 mmHg 58%
    17:00 -4°C° 0 mm 3 mps 757 mmHg 62%
    18:00 -4°C° 0 mm 3 mps 757 mmHg 63%
    19:00 -4°C° 0 mm 3 mps 757 mmHg 65%
    20:00 -4°C° 0 mm 3 mps 757 mmHg 66%
    21:00 -4°C° 0 mm 3 mps 757 mmHg 67%
    22:00 -4°C° 0 mm 3 mps 757 mmHg 68%
    23:00 -5°C° 0 mm 3 mps 757 mmHg 69%
    Show more